Change the Weather History Date:

Tuesday, February 26, 2013

  Actual Average Record
Temperature  
Mean Temperature 33 °F 34 °F  
Max Temperature 35 °F 43 °F 69 °F (1996)
Min Temperature 31 °F 25 °F -11 °F (1950)
Degree Days  
Heating Degree Days 32 31  
Month to date heating degree days 945 915  
Since 1 July heating degree days 4304 4316  
Cooling Degree Days 0 0  
Month to date cooling degree days 0 0  
Year to date cooling degree days 0 0  
Moisture  
Dew Point 30 °F    
Average Humidity 88    
Maximum Humidity 100    
Minimum Humidity 75    
Precipitation  
Precipitation 0.04 in 0.08 in 0.98 in (1997)
Month to date precipitation 1.78 1.47  
Year to date precipitation 3.88 2.71  
Sea Level Pressure  
Sea Level Pressure 29.60 in    
Wind  
Wind Speed 19 mph (NNE)    
Max Wind Speed 26 mph    
Max Gust Speed 37 mph    
Visibility 4 miles    
Events Fog , Snow    
T = Trace of Precipitation, MM = Missing Value Source: NWS Daily Summary

Daily Weather History Graph

Daily Weather History Graph

Search for Another Location

Airport or City:

Trip Planner

Search our weather history database for the weather conditions in past years. The results will help you decide how hot, cold, wet, or windy it might be!

Date:

Astronomy

Feb. 26, 2013 Rise Set
Actual Time 6:42 AM CST 5:52 PM CST
Civil Twilight 6:15 AM CST 6:20 PM CST
Nautical Twilight 5:43 AM CST 6:51 PM CST
Astronomical Twilight 5:11 AM CST 7:23 PM CST
Moon 7:10 PM CST (2/26) 6:44 AM CST (2/26)
Length of Visible Light 12h 05m
Length of Day
11h 09m
Full, 99% of the Moon is Illuminated
Feb 26
Full
Mar 4
Last Quarter
Mar 11
New
Mar 19
First Quarter
Mar 27
Full

Hourly Weather History & Observations

Time (CST) Temp. Windchill Dew Point Humidity Pressure Visibility Wind Dir Wind Speed Gust Speed Precip Events Conditions
12:53 AM 35.1 °F 25.5 °F 28.0 °F 76% 29.82 in 8.0 mi NE 15.0 mph 23.0 mph N/A   Overcast
1:53 AM 35.1 °F 25.2 °F 28.0 °F 76% 29.76 in 8.0 mi NE 16.1 mph - N/A   Overcast
2:53 AM 35.1 °F 25.2 °F 28.0 °F 76% 29.70 in 8.0 mi ENE 16.1 mph - N/A   Overcast
3:53 AM 35.1 °F 24.1 °F 28.0 °F 76% 29.66 in 8.0 mi NE 19.6 mph - N/A   Overcast
4:53 AM 35.1 °F 23.5 °F 28.0 °F 76% 29.61 in 9.0 mi NE 21.9 mph 29.9 mph N/A   Overcast
5:53 AM 35.1 °F 24.5 °F 28.0 °F 76% 29.62 in 9.0 mi NE 18.4 mph 26.5 mph N/A   Overcast
6:11 AM 33.8 °F 21.6 °F 28.4 °F 81% 29.59 in 5.0 mi NE 23.0 mph 32.2 mph 0.00 in Snow Light Snow
6:27 AM 33.8 °F 21.6 °F 28.4 °F 81% 29.59 in 1.8 mi NE 23.0 mph 34.5 mph 0.00 in Snow Light Snow
6:53 AM 32.0 °F 19.8 °F 30.9 °F 96% 29.60 in 0.5 mi NE 20.7 mph 28.8 mph 0.00 in Fog , Snow Snow
7:05 AM 32.0 °F 19.5 °F 30.2 °F 93% 29.58 in 0.2 mi NE 21.9 mph 31.1 mph 0.00 in Fog , Snow Heavy Snow
7:53 AM 32.0 °F 19.2 °F 30.9 °F 96% 29.60 in 0.2 mi NE 23.0 mph 29.9 mph 0.00 in Fog , Snow Snow
8:53 AM 32.0 °F 19.5 °F 30.9 °F 96% 29.57 in 0.5 mi NE 21.9 mph 31.1 mph 0.00 in Fog , Snow Snow
9:07 AM 32.0 °F 19.5 °F 30.2 °F 93% 29.55 in 1.0 mi NE 21.9 mph 29.9 mph 0.00 in Snow Light Snow
9:19 AM 32.0 °F 18.9 °F 30.2 °F 93% 29.55 in 0.8 mi NE 24.2 mph 31.1 mph 0.00 in Snow Light Snow
9:53 AM 32.0 °F 19.2 °F 30.9 °F 96% 29.55 in 0.8 mi NE 23.0 mph 32.2 mph 0.01 in Snow Light Snow
10:53 AM 32.0 °F 19.5 °F 30.9 °F 96% 29.55 in 1.0 mi NNE 21.9 mph 32.2 mph 0.02 in Snow Light Snow
11:50 AM 33.8 °F 22.5 °F 30.2 °F 87% 29.53 in 0.8 mi NE 19.6 mph 28.8 mph 0.01 in Snow Light Snow
11:53 AM 33.1 °F 20.9 °F 30.9 °F 92% 29.55 in 1.0 mi NE 21.9 mph 28.8 mph 0.01 in Snow Light Snow
12:39 PM 33.8 °F 22.2 °F - N/A% 29.52 in 0.8 mi NE 20.7 mph 27.6 mph 0.00 in Snow Light Snow
12:53 PM 33.1 °F 21.2 °F - N/A% 29.54 in 0.8 mi NE 20.7 mph 28.8 mph 0.00 in Snow Light Snow
1:17 PM 33.8 °F 22.2 °F - N/A% 29.52 in 1.0 mi NE 20.7 mph 28.8 mph 0.00 in Snow Light Snow
1:53 PM 33.1 °F 20.3 °F - N/A% 29.53 in 1.5 mi NE 24.2 mph 29.9 mph 0.00 in Snow Light Snow
2:53 PM 32.0 °F 21.2 °F - N/A% 29.55 in 1.8 mi NNE 16.1 mph 25.3 mph 0.00 in Snow Light Snow
3:06 PM 32.0 °F 20.5 °F - N/A% 29.53 in 2.0 mi NNE 18.4 mph 25.3 mph 0.00 in Snow Light Snow
3:53 PM 32.0 °F 20.8 °F - N/A% 29.57 in 3.0 mi NNE 17.3 mph 25.3 mph 0.00 in Snow Light Snow
4:05 PM 32.0 °F 20.5 °F - N/A% 29.56 in 3.0 mi NNE 18.4 mph - 0.00 in Snow Light Snow
4:26 PM 32.0 °F 19.8 °F - N/A% 29.56 in 2.5 mi NNE 20.7 mph - 0.00 in Snow Light Snow
4:48 PM 32.0 °F 20.1 °F - N/A% 29.57 in 2.5 mi North 19.6 mph - 0.00 in Snow Light Snow
4:53 PM 32.0 °F 20.5 °F - N/A% 29.59 in 3.0 mi NNE 18.4 mph - 0.00 in Snow Light Snow
5:34 PM 32.0 °F 20.1 °F 32.0 °F 100% 29.58 in 4.0 mi NNE 19.6 mph - 0.00 in   Overcast
5:45 PM 32.0 °F 20.1 °F 32.0 °F 100% 29.58 in 5.0 mi North 19.6 mph - 0.00 in   Overcast
5:53 PM 32.0 °F 20.1 °F 32.0 °F 100% 29.60 in 7.0 mi NNE 19.6 mph - 0.00 in   Overcast
6:49 PM 30.2 °F 18.1 °F 30.2 °F 100% 29.61 in 2.5 mi North 18.4 mph 26.5 mph 0.00 in Snow Light Snow
6:53 PM 30.9 °F 19.8 °F 30.0 °F 96% 29.63 in 2.5 mi North 16.1 mph - 0.00 in Snow Light Snow
7:00 PM 30.2 °F 18.5 °F 30.2 °F 100% 29.61 in 2.5 mi North 17.3 mph - 0.00 in Snow Light Snow
7:07 PM 30.2 °F 18.1 °F 30.2 °F 100% 29.61 in 3.0 mi North 18.4 mph - 0.00 in Snow Light Snow
7:18 PM 30.2 °F 19.8 °F 30.2 °F 100% 29.62 in 4.0 mi North 13.8 mph - 0.00 in   Overcast
7:53 PM 30.9 °F 20.7 °F 30.0 °F 96% 29.65 in 8.0 mi North 13.8 mph - 0.00 in   Overcast
8:53 PM 30.9 °F 19.4 °F 30.0 °F 96% 29.65 in 5.0 mi North 17.3 mph - 0.00 in   Overcast
9:53 PM 32.0 °F 21.6 °F 30.0 °F 92% 29.66 in 7.0 mi North 15.0 mph 20.7 mph N/A   Overcast
10:53 PM 30.2 °F 20.2 °F 30.2 °F 100% 29.64 in 5.0 mi North 12.7 mph - N/A   Overcast
11:10 PM 30.2 °F 19.8 °F 30.2 °F 100% 29.64 in 4.0 mi North 13.8 mph - N/A   Overcast
11:48 PM 30.2 °F 20.2 °F 30.2 °F 100% 29.64 in 6.0 mi NNW 12.7 mph - N/A   Overcast
11:53 PM 30.9 °F 22.2 °F 30.0 °F 96% 29.66 in 7.0 mi NNW 10.4 mph - N/A   Overcast